Weather History for Steamboat Springs, CO

Change the Weather History Date:

Saturday, February 16, 2013

  Actual Average Record
Temperature  
Mean Temperature 16 °F -  
Max Temperature 31 °F 35 °F 53 °F (1991)
Min Temperature 1 °F 6 °F -30 °F (1918)
Degree Days  
Heating Degree Days 49    
Moisture  
Dew Point 9 °F    
Average Humidity 79    
Maximum Humidity 95    
Minimum Humidity 45    
Precipitation  
Precipitation 0.00 in - - ()
Sea Level Pressure  
Sea Level Pressure 30.27 in    
Wind  
Wind Speed 0 mph (South)    
Max Wind Speed 5 mph    
Max Gust Speed -    
Visibility 10 miles    
Events      
Averages and records for this station are not official NWS values.
T = Trace of Precipitation, MM = Missing Value Source: NWS Daily Summary

Daily Weather History Graph

Daily Weather History Graph

Search for Another Location

Airport:

Trip Planner

Search our weather history database for the weather conditions in past years. The results will help you decide how hot, cold, wet, or windy it might be!

Date:

Astronomy

Feb. 16, 2013 Rise Set
Actual Time 6:59 AM MST 5:44 PM MST
Civil Twilight 6:31 AM MST 6:12 PM MST
Nautical Twilight 5:59 AM MST 6:44 PM MST
Astronomical Twilight 5:27 AM MST 7:15 PM MST
Moon 10:12 AM MST (2/16) No Moon Set
Length of Visible Light 11h 40m
Length of Day
10h 44m
Waxing Crescent, 40% of the Moon is Illuminated
Feb 16
Waxing Crescent
Feb 17
First Quarter
Feb 25
Full
Mar 4
Last Quarter
Mar 11
New

Hourly Weather History & Observations

Time (MST) Temp. Windchill Dew Point Humidity Pressure Visibility Wind Dir Wind Speed Gust Speed Precip Events Conditions
12:15 AM 18.1 °F - 13.8 °F 83% 30.38 in 10.0 mi Calm Calm - N/A   Clear
12:35 AM 17.6 °F - 14.9 °F 89% 30.38 in 10.0 mi Calm Calm - N/A   Clear
12:55 AM 15.3 °F - 13.1 °F 91% 30.38 in 10.0 mi Calm Calm - N/A   Clear
1:15 AM 12.2 °F - 10.2 °F 92% 30.38 in 10.0 mi Calm Calm - N/A   Clear
1:35 AM 14.2 °F - 13.1 °F 95% 30.38 in 10.0 mi Calm Calm - N/A   Clear
1:55 AM 13.8 °F - 12.2 °F 93% 30.38 in 10.0 mi Calm Calm - N/A   Clear
2:15 AM 11.3 °F - 10.2 °F 95% 30.38 in 7.0 mi Calm Calm - N/A   Clear
2:35 AM 11.8 °F - 10.8 °F 95% 30.38 in 10.0 mi Calm Calm - N/A   Clear
2:55 AM 10.8 °F - 9.0 °F 92% 30.38 in 10.0 mi Calm Calm - N/A   Clear
3:15 AM 10.0 °F - 8.4 °F 93% 30.38 in 10.0 mi Calm Calm - N/A   Clear
3:35 AM 11.1 °F - 9.9 °F 95% 30.37 in 10.0 mi Calm Calm - N/A   Clear
4:15 AM 9.1 °F - 7.5 °F 93% 30.37 in 10.0 mi Calm Calm - N/A   Clear
4:35 AM 8.1 °F - 5.9 °F 91% 30.37 in 10.0 mi Calm Calm - N/A   Clear
4:55 AM 8.2 °F - 6.1 °F 91% 30.37 in 10.0 mi Calm Calm - N/A   Clear
5:15 AM 6.8 °F - 4.6 °F 91% 30.37 in 10.0 mi Calm Calm - N/A   Clear
5:35 AM 7.5 °F - 5.0 °F 89% 30.37 in 10.0 mi Calm Calm - N/A   Clear
5:55 AM 7.0 °F - 4.8 °F 91% 30.37 in 10.0 mi Calm Calm - N/A   Clear
6:15 AM 5.0 °F - 1.8 °F 86% 30.36 in 10.0 mi Calm Calm - N/A   Clear
6:35 AM 5.9 °F - 3.6 °F 90% 30.36 in 10.0 mi Calm Calm - N/A   Clear
6:55 AM 3.9 °F - 1.0 °F 88% 30.36 in 10.0 mi Calm Calm - N/A   Clear
7:15 AM 4.5 °F - 1.4 °F 87% 30.36 in 10.0 mi Calm Calm - N/A   Clear
7:35 AM 1.8 °F - -3.1 °F 80% 30.37 in 10.0 mi Calm Calm - N/A   Clear
7:55 AM 4.1 °F - 1.2 °F 88% 30.37 in 10.0 mi Calm Calm - N/A   Clear
8:15 AM 7.7 °F - 5.5 °F 91% 30.37 in 10.0 mi Calm Calm - N/A   Clear
8:35 AM 7.7 °F - 4.8 °F 88% 30.36 in 7.0 mi Calm Calm - N/A   Clear
8:55 AM 10.9 °F - 8.4 °F 90% 30.36 in 10.0 mi Calm Calm - N/A   Clear
3:55 PM 29.7 °F - 12.0 °F 48% 30.21 in 10.0 mi Calm Calm - N/A   Clear
4:15 PM 30.0 °F - 11.8 °F 47% 30.20 in 10.0 mi Calm Calm - N/A   Clear
4:35 PM 31.3 °F - 11.8 °F 45% 30.19 in 10.0 mi Calm Calm - N/A   Clear
4:55 PM 28.6 °F - 12.4 °F 51% 30.19 in 10.0 mi Calm Calm - N/A   Clear
5:15 PM 27.1 °F - 11.7 °F 52% 30.19 in 10.0 mi Calm Calm - N/A   Clear
5:35 PM 25.7 °F - 11.5 °F 55% 30.18 in 10.0 mi Calm Calm - N/A   Clear
5:55 PM 23.5 °F - 12.0 °F 61% 30.18 in 10.0 mi Calm Calm - N/A   Clear
6:15 PM 23.9 °F - 12.7 °F 62% 30.18 in 10.0 mi Calm Calm - N/A   Clear
6:35 PM 25.3 °F - 12.0 °F 57% 30.18 in 10.0 mi Calm Calm - N/A   Clear
6:55 PM 23.2 °F - 12.2 °F 63% 30.18 in 10.0 mi Calm Calm - N/A   Clear
7:15 PM 22.8 °F - 12.4 °F 64% 30.17 in 10.0 mi Calm Calm - N/A   Clear
7:35 PM 20.8 °F - 11.7 °F 68% 30.16 in 10.0 mi Calm Calm - N/A   Clear
7:55 PM 19.9 °F - 10.8 °F 68% 30.16 in 10.0 mi Calm Calm - N/A   Clear
8:15 PM 21.2 °F - 10.9 °F 65% 30.17 in 10.0 mi Calm Calm - N/A   Clear
8:35 PM 19.2 °F - 11.1 °F 71% 30.16 in 10.0 mi Calm Calm - N/A   Clear
8:55 PM 15.8 °F - 10.6 °F 80% 30.15 in 10.0 mi Calm Calm - N/A   Clear
9:15 PM 15.3 °F 9.6 °F 9.1 °F 77% 30.15 in 10.0 mi West 3.5 mph - N/A   Clear
9:35 PM 15.6 °F - 9.9 °F 78% 30.15 in 10.0 mi Calm Calm - N/A   Clear
9:55 PM 17.2 °F - 10.6 °F 75% 30.14 in 10.0 mi Calm Calm - N/A   Clear
10:15 PM 14.4 °F - 9.7 °F 82% 30.14 in 10.0 mi Calm Calm - N/A   Clear
10:35 PM 15.4 °F - 9.5 °F 77% 30.14 in 10.0 mi Calm Calm - N/A   Clear
10:55 PM 14.7 °F 7.3 °F 9.7 °F 80% 30.12 in 10.0 mi ESE 4.6 mph - N/A   Clear
11:15 PM 14.7 °F - 9.9 °F 81% 30.11 in 10.0 mi Calm Calm - N/A   Clear
11:35 PM 13.5 °F - 9.0 °F 82% 30.10 in 10.0 mi Calm Calm - N/A   Clear
11:55 PM 14.0 °F - 10.0 °F 84% 30.10 in 10.0 mi Calm Calm - N/A   Clear